Helicity
152 154 184 195 201 194 179 187 201 187 190 201 187 150 146 172 214 262 281 288 284 275 241 269 222 163 240 278 253 254 292 142 166 259 294 248 159 188 109 57 71 73 77 73
95 193 147 119 126 146 144 139 175 118 145 179 157 134 109 130 169 219 263 279 294 287 244 260 285 187 128 240 238 231 208 279 129 154 212 255 236 218 187 65 67 89 84 89
221 143 91 108 152 145 177 199 162 179 142 57 106 113 69 74 108 153 214 223 218 245 248 192 249 237 161 144 240 226 210 208 227 114 216 276 277 261 227 127 103 111 88 83
155 85 85 79 113 128 93 96 81 79 109 183 110 192 17 73 83 125 186 223 244 227 193 152 132 215 179 131 141 209 219 239 177 208 280 282 290 286 218 138 154 96 103 100
78 76 80 81 82 68 117 67 42 45 44 82 28 116 115 105 68 180 144 163 191 171 194 200 113 76 130 145 126 128 221 295 301 250 188 233 294 240 212 254 163 90 116 102
78 56 94 90 55 47 67 39 10 46 59 59 40 110 115 224 199 176 179 186 165 185 181 106 87 96 25 51 119 137 136 263 381 363 153 194 194 214 224 266 206 141 148 104
45 94 49 82 33 33 67 35 45 33 31 107 221 106 201 170 165 140 145 140 141 116 138 157 118 72 73 38 70 113 148 207 378 412 332 129 155 194 254 275 255 207 146 96
36 42 83 66 67 37 28 30 75 84 107 118 41 47 164 81 101 94 79 63 62 65 56 83 104 97 54 47 39 85 157 219 348 447 420 281 166 155 247 226 241 178 201 161
3 69 56 52 38 21 42 51 58 56 18 34 10 79 48 60 70 78 49 40 42 33 33 48 74 82 89 50 49 57 149 212 298 466 411 355 257 270 219 271 233 257 219 164
28 64 48 46 19 22 -20 30 39 74 71 57 71 74 137 122 89 87 75 30 49 40 38 43 63 84 59 84 47 72 132 192 253 453 407 401 319 248 281 363 246 217 171 161
23 34 77 49 45 29 21 12 13 64 119 129 67 178 178 145 60 9 31 33 27 48 37 63 85 120 88 72 72 93 137 193 280 384 383 388 354 275 251 151 153 126 34 18
20 42 95 120 94 69 60 47 27 69 103 142 121 97 149 112 54 56 71 77 43 77 85 88 86 81 107 78 76 122 115 150 231 239 360 365 287 251 227 179 147 150 175 172
25 79 140 182 133 119 105 83 65 60 66 61 95 123 89 30 55 42 -2 -64 -56 -42 -1 62 98 90 83 129 97 129 112 108 183 292 389 303 283 204 218 190 147 134 130 81
31 67 109 142 157 146 144 89 61 53 92 84 83 50 -3 -77 -50 -37 -31 -25 -19 -39 58 104 102 111 161 140 104 126 122 109 168 349 370 297 197 142 172 174 154 113 94 71
49 92 113 133 158 141 104 114 85 70 65 98 69 62 3 -10 -1 -8 -29 -13 -8 26 64 89 118 131 141 146 125 195 218 208 289 208 288 223 145 134 171 167 148 131 117 97
65 91 125 139 155 143 134 104 100 91 80 109 109 93 -15 4 -12 -12 -8 -11 -12 6 71 120 150 155 155 169 168 209 211 206 190 273 231 232 170 144 155 137 121 127 123 107
61 105 158 161 141 144 118 78 111 136 107 93 75 18 9 -3 -15 5 -4 4 26 49 94 121 151 125 155 191 192 240 231 166 183 224 175 167 129 105 129 127 118 132 162 172
109 110 141 123 141 146 144 75 104 122 114 137 97 74 58 42 15 24 22 26 59 55 70 90 96 120 116 97 109 129 131 171 152 144 130 150 148 135 137 148 156 165 162 169
83 113 98 74 105 126 105 80 89 99 56 125 117 73 44 8 32 43 7 46 65 70 68 81 90 101 101 94 117 128 198 192 142 133 156 187 180 161 154 154 179 193 188 188
120 108 94 123 111 117 109 74 65 73 74 102 75 63 59 28 -2 38 51 57 81 58 63 91 87 82 43 35 74 78 84 149 190 186 169 169 183 212 218 227 246 266 262 237
124 118 71 92 110 90 119 80 42 35 53 70 59 59 56 59 60 75 62 57 63 73 82 71 76 79 69 56 45 36 93 166 173 175 167 175 165 157 169 191 240 282 304 298
184 193 187 155 175 127 146 115 8 -11 35 50 53 46 70 88 94 90 89 89 88 83 76 70 76 77 68 58 71 58 80 116 118 133 142 140 128 94 95 132 167 189 185 210
229 278 238 202 133 98 182 93 106 75 81 80 70 61 73 86 88 104 112 114 125 131 126 113 111 106 95 78 67 84 84 55 38 54 83 70 42 29 71 79 76 125 153 160
168 203 154 96 82 158 157 119 94 109 104 93 81 74 89 101 106 118 126 121 126 120 119 116 113 116 81 69 84 73 59 51 -19 -35 6 49 43 25 -12 7 49 88 80 108
112 159 104 88 56 27 52 62 72 82 76 66 65 67 67 74 83 90 98 104 102 105 107 107 120 113 97 83 49 10 -15 -36 -73 -62 -42 -34 -40 -44 -42 -10 -18 -10 44 70
149 115 95 54 59 50 17 58 41 42 55 55 51 59 56 59 65 77 90 99 95 99 101 102 103 100 96 91 86 72 54 42 39 -55 -56 -52 -68 -71 -49 -34 -16 11 16 4
Wind_Speed
42 35 41 42 39 39 43 46 50 49 51 54 54 53 52 49 49 51 51 52 50 50 51 53 54 53 54 54 54 53 49 46 41 37 43 27 27 49 41 46 40 39 36 30
33 42 40 39 41 43 46 50 53 50 51 56 56 60 53 51 50 50 54 56 57 58 56 57 58 57 56 57 57 59 57 58 61 47 43 42 34 30 60 53 48 48 46 37
43 42 41 43 46 50 49 52 55 59 64 55 62 70 59 52 50 50 53 57 59 62 64 62 62 62 61 62 62 64 66 67 64 62 43 40 34 30 42 48 51 48 48 41
42 40 42 45 47 53 56 51 57 61 65 68 54 76 56 54 56 56 59 61 64 66 66 66 65 66 66 66 65 67 68 71 68 72 49 46 38 35 38 48 46 49 53 43
41 41 45 46 50 51 52 56 59 61 68 72 70 75 65 57 61 66 64 64 66 68 69 70 70 69 69 69 70 69 70 71 72 71 46 54 53 50 50 46 47 47 36 49
33 34 40 47 45 43 55 55 55 58 61 78 72 68 69 63 66 70 69 69 70 71 73 72 71 72 72 72 71 73 72 72 73 74 58 53 58 52 53 48 49 48 46 58
32 38 36 49 46 38 55 53 56 58 57 68 51 64 67 53 58 63 69 71 72 73 75 77 78 77 77 77 76 73 74 77 74 74 73 62 62 59 52 48 47 50 51 52
38 34 47 50 45 46 42 44 47 55 57 57 40 60 51 43 52 59 65 69 71 74 76 79 81 81 80 81 79 77 75 76 76 72 73 70 68 60 59 53 51 48 54 48
22 32 32 43 40 43 39 38 35 46 46 54 47 41 35 45 58 64 68 71 74 76 78 82 83 82 83 81 81 79 78 75 73 74 72 70 63 65 64 51 47 47 49 56
28 29 32 32 27 39 26 31 20 30 51 58 46 48 48 57 66 69 73 73 76 78 80 82 84 84 83 81 80 78 77 75 72 72 69 67 62 56 59 55 52 47 48 52
30 26 35 32 36 34 33 27 19 12 25 53 67 52 43 59 70 77 77 74 77 80 81 81 83 82 82 80 77 76 75 73 74 70 67 66 62 56 59 45 41 40 46 60
33 33 35 33 37 31 35 33 24 18 20 24 43 60 47 64 71 72 75 72 74 74 74 78 77 75 77 77 75 73 71 69 69 65 64 62 57 51 49 47 40 38 41 41
30 31 24 30 29 30 30 32 26 15 10 6 22 40 55 60 63 64 59 47 46 50 59 66 68 69 68 71 72 68 66 66 62 63 66 59 54 49 46 41 38 37 38 42
24 26 23 20 24 30 30 33 32 30 23 12 5 4 40 29 25 29 31 35 35 45 61 63 60 60 64 61 61 61 61 59 59 61 55 54 48 47 44 44 41 38 37 37
23 21 24 24 26 23 21 24 30 30 28 25 14 12 14 9 12 15 14 19 42 60 61 54 52 44 46 52 50 50 52 53 56 51 58 51 48 48 45 43 42 40 39 40
22 17 21 13 15 14 10 12 16 20 22 20 15 16 12 12 6 5 4 17 7 5 23 27 28 27 24 38 41 43 44 44 44 48 46 46 43 42 43 42 43 43 41 40
17 21 22 17 18 11 8 8 15 20 19 21 22 15 11 5 5 5 9 4 1 11 13 12 23 30 31 25 35 39 39 42 42 47 40 43 43 44 45 45 45 46 48 48
24 18 18 12 19 18 26 29 25 17 16 17 13 11 9 9 9 11 18 9 7 9 5 8 14 20 26 32 33 38 34 34 36 37 39 39 41 43 44 46 48 50 49 50
27 21 17 18 17 12 18 21 22 23 16 22 18 14 12 11 11 26 12 10 10 10 8 8 11 15 20 28 30 31 32 29 28 32 36 39 41 42 43 46 48 49 49 48
27 25 21 31 33 31 29 26 25 27 18 28 23 18 16 18 25 21 12 12 13 12 11 10 9 7 11 24 21 24 24 26 27 31 34 35 37 39 41 45 47 48 44 42
35 30 15 16 22 26 28 26 24 23 30 29 27 23 22 23 22 14 13 12 14 15 16 17 14 14 16 4 16 17 16 18 21 24 26 29 31 33 36 37 39 39 39 40
23 23 23 26 28 33 35 33 10 29 29 30 28 28 27 26 22 22 19 16 17 16 19 24 23 22 23 22 12 5 13 19 23 24 24 25 28 30 32 33 35 37 36 36
30 32 30 33 33 33 39 35 39 36 33 34 33 33 31 33 33 35 30 27 28 27 24 20 14 17 17 21 26 25 17 8 9 15 21 23 26 30 36 36 36 40 40 36
26 28 30 30 32 32 38 38 40 42 40 40 39 37 35 33 32 32 31 30 30 28 27 29 23 14 7 10 12 18 14 11 21 28 27 27 30 35 37 37 40 40 42 42
23 34 30 27 27 36 38 43 45 45 44 42 40 39 37 35 34 33 33 33 33 33 33 33 34 33 30 21 8 1 8 11 22 23 22 25 29 33 37 39 37 40 39 40
30 30 34 33 35 39 40 47 48 47 46 44 42 41 39 37 36 36 36 36 36 36 36 36 35 34 34 33 31 27 25 25 26 11 17 16 28 40 50 50 51 54 55 29
Wind_Direction
331 325 315 317 318 310 302 297 292 294 299 292 285 283 284 287 287 286 287 289 291 291 292 293 292 290 289 285 280 279 282 262 256 253 252 249 253 255 257 259 260 260 262 263
326 320 321 320 316 310 304 298 296 296 298 293 286 282 282 284 286 288 288 288 288 290 291 292 291 290 289 286 283 278 275 274 261 259 259 262 257 259 248 257 259 257 257 260
314 316 319 316 313 306 306 301 298 294 296 292 288 281 275 280 284 288 291 290 290 289 288 290 291 289 287 286 283 279 275 273 271 259 260 265 262 262 256 258 263 259 257 259
324 326 320 314 313 310 299 308 301 297 294 286 290 280 277 276 279 286 290 292 290 289 289 289 289 288 287 285 284 281 278 275 274 270 252 254 254 259 260 261 260 260 257 260
320 325 322 318 315 316 307 310 301 298 291 289 283 280 279 278 276 286 290 292 293 292 290 288 288 288 286 286 283 282 279 276 275 276 251 257 259 263 268 265 261 260 257 257
344 346 340 329 328 326 321 312 304 300 293 284 284 276 281 278 284 287 291 291 293 293 292 290 290 288 286 285 285 281 279 276 274 271 263 258 261 264 265 260 262 258 261 257
352 351 355 340 332 342 327 319 305 298 294 290 299 286 283 292 296 295 294 293 294 294 292 290 289 288 285 283 282 281 278 273 275 272 270 260 262 263 257 260 261 257 259 260
346 348 345 346 353 340 342 336 321 308 304 303 309 294 292 304 305 304 301 299 299 295 294 291 289 287 286 283 280 278 276 274 272 272 270 269 264 265 262 261 261 259 260 265
111 47 48 21 24 10 358 353 352 325 315 307 305 316 320 313 308 307 305 302 299 299 297 293 289 286 284 283 280 276 274 271 271 268 269 268 268 268 265 259 260 259 263 269
98 82 71 64 73 36 59 29 23 349 319 307 311 305 304 311 308 307 306 307 305 301 300 297 291 286 284 282 280 275 271 268 269 268 265 267 268 272 273 265 258 263 269 271
109 114 65 70 57 55 45 38 38 22 338 316 305 309 316 311 309 307 311 310 308 302 301 301 295 287 283 281 278 274 269 266 263 266 266 265 266 271 274 280 275 281 277 277
105 91 73 74 60 63 51 45 50 43 34 0 329 312 325 310 312 313 314 315 312 307 308 305 299 289 286 278 276 271 266 263 260 262 262 264 267 269 272 279 284 288 289 292
107 88 89 72 72 64 58 51 50 54 65 40 8 341 332 325 324 324 312 273 272 274 283 294 301 293 288 283 274 268 264 260 262 261 259 261 264 266 272 278 286 291 292 293
115 94 91 77 64 61 57 54 55 59 65 68 60 267 299 263 252 258 259 270 268 279 299 295 284 280 291 286 274 265 262 260 260 257 259 257 260 266 272 278 285 292 295 298
114 96 77 69 64 69 69 64 63 67 69 80 78 193 229 198 227 237 218 256 287 312 314 296 288 263 266 282 272 267 262 259 254 257 256 259 264 267 273 279 284 290 295 294
104 101 75 72 78 72 66 85 82 81 81 89 117 145 178 210 182 205 176 262 281 264 266 264 261 256 242 258 267 260 266 263 261 258 257 258 267 271 275 280 284 290 295 297
106 80 59 57 66 44 61 120 115 93 103 100 97 116 104 170 145 109 95 150 233 249 245 238 261 275 277 250 265 259 261 259 263 259 264 265 268 273 278 283 286 288 290 292
56 65 60 45 51 47 55 66 85 112 109 120 135 139 148 182 205 157 100 114 125 113 188 215 249 270 286 295 280 283 293 273 262 257 258 269 275 279 282 285 288 290 292 292
26 42 37 41 29 29 59 72 87 94 123 119 124 122 128 135 146 114 139 142 149 147 178 187 234 259 279 294 284 293 299 296 279 274 276 279 283 287 291 293 296 298 298 297
21 16 21 17 14 22 38 49 78 81 125 108 118 121 121 113 108 117 136 144 144 163 164 154 173 203 265 299 283 291 292 301 290 279 277 283 287 290 294 297 301 305 303 301
11 15 26 30 30 25 23 32 49 77 76 87 109 123 128 125 130 162 154 145 136 132 132 126 141 128 109 193 295 302 287 283 286 292 307 309 309 315 322 320 322 319 313 308
94 91 91 102 101 77 95 90 30 341 158 135 136 127 125 125 135 129 130 132 124 124 120 113 115 117 111 110 141 280 313 311 321 327 333 336 343 346 346 349 351 348 338 325
102 114 110 116 105 106 120 118 141 151 162 148 139 132 134 124 119 112 116 117 113 113 118 127 141 135 131 123 123 126 141 188 304 324 344 353 2 7 8 6 7 14 12 1
114 126 111 104 111 128 130 141 142 146 147 144 139 137 138 138 134 130 127 121 119 120 118 116 119 128 128 133 132 129 141 157 357 7 8 5 10 12 13 10 10 10 15 21
119 109 114 119 126 119 138 146 144 145 146 145 145 142 140 136 132 129 125 122 119 117 115 115 113 112 115 124 134 333 334 339 359 1 358 4 9 13 17 15 9 14 8 9
120 114 108 107 119 118 123 143 145 143 144 146 144 141 139 138 134 129 125 121 118 116 114 114 114 115 115 116 118 125 131 135 137 7 3 0 12 24 44 46 45 48 50 94